Location: Jackson
(35.6140°N, 88.8140°W)
Time: 19:33:18
(UTC-05:00)

N. Korean satellite - Visible Passes

Search period start: 20 October 2019 00:00
Search period end: 30 October 2019 00:00
Orbit: 455 x 508 km, 97.2° (Epoch: 20 October)

Date Brightness Start Highest point End Pass type
(mag) Time Alt. Az. Time Alt. Az. Time Alt. Az.
20 Oct 9.3 06:09:11 10° NE 06:12:11 24° E 06:15:13 10° SSE visible
21 Oct 10.4 05:45:29 10° ENE 05:46:46 11° E 05:48:01 10° ESE visible
22 Oct 9.9 18:58:32 10° SW 19:00:45 16° W 19:02:59 10° NW visible
23 Oct 8.1 06:26:13 10° NNE 06:29:43 42° E 06:33:13 10° S visible
23 Oct 8.4 18:32:09 10° SSW 18:35:19 36° W 18:38:32 10° NNW visible
24 Oct 9.7 06:01:36 10° NE 06:04:20 20° E 06:07:04 10° SE visible
26 Oct 6.8 06:43:29 10° NNE 06:47:10 78° E 06:50:52 10° S visible
26 Oct 9.6 18:50:10 10° SW 18:52:49 21° W 18:55:28 10° NW visible
27 Oct 8.7 06:18:28 10° NNE 06:21:50 33° E 06:25:13 10° SSE visible
28 Oct 10.0 05:54:06 10° NE 05:56:25 16° E 05:58:44 10° SE visible
29 Oct 10.2 19:08:52 10° WSW 19:10:19 12° W 19:11:46 10° WNW visible
